Regional Weather Roundup
Issued by NWS Columbia, SC

Home | Current Version | Previous Version | Text Only | Print | Product List | Glossary On
Versions: 1 2 3 4 5 6 7 8 9 10 11 12 13 14 15 16 17 18 19 20 21 22 23 24 25 26 27 28 29 30 31 32 33 34 35 36 37 38 39 40 41 42 43 44 45 46 47 48 49 50
000
ASUS42 KCAE 260010
RWRCAE
REGIONAL WEATHER ROUNDUP
NATIONAL WEATHER SERVICE COLUMBIA SC
800 PM EDT SAT MAR 25 2017

NOTE: "FAIR" INDICATES FEW OR NO CLOUDS BELOW 12,000 FEET WITH NO
SIGNIFICANT WEATHER AND/OR OBSTRUCTIONS TO VISIBILITY.

NOT ALL STATIONS ARE QUALITY CONTROLLED BY THE NATIONAL
WEATHER SERVICE. USE DATA WITH CAUTION...ESPECIALLY
DEWPOINT OBSERVATIONS.

SCZ001>056-GAZ040-063>065-077-260100-
...UPSTATE SOUTH CAROLINA...

CITY           SKY/WX    TMP DP  RH WIND       PRES   REMARKS
ANDERSON       MOCLDY    69  49  48 SE3       30.15S
6HR MIN TEMP:  69; 6HR MAX TEMP:  75;

LIBERTY        CLOUDY    68  50  52 SE6       30.16R
6HR MIN TEMP:  68; 6HR MAX TEMP:  72;

SPARTANBURG    MOCLDY    68  46  45 SE3       30.17S
CLEMSON        CLOUDY    70  50  49 CALM      30.17R
6HR MIN TEMP:  69; 6HR MAX TEMP:  74;

GREENVILLE     MOCLDY    70  50  49 SE5       30.18R
6HR MIN TEMP:  69; 6HR MAX TEMP:  74;

GREENWOOD      MOCLDY    68  49  50 E5        30.18R
6HR MIN TEMP:  68; 6HR MAX TEMP:  75;

GREER          CLOUDY    65  50  58 SE5       30.17R
6HR MIN TEMP:  65; 6HR MAX TEMP:  72;

ROCK HILL      MOCLDY    68  49  50 CALM      30.19S
6HR MIN TEMP:  68; 6HR MAX TEMP:  75;

CHESTER        PTCLDY    68  46  45 CALM      30.19S
LAURENS        CLOUDY    70  50  49 SE5       30.17S


...CENTRAL SOUTH CAROLINA...

CITY           SKY/WX    TMP DP  RH WIND       PRES   REMARKS
COLUMBIA APT   MOCLDY    72  51  47 SE13      30.17R
6HR MIN TEMP:  72; 6HR MAX TEMP:  78;

COLUMBIA OWENS CLOUDY    73  49  42 SE7       30.19R
6HR MIN TEMP:  73; 6HR MAX TEMP:  77;

MCENTIRE ANGB  MOCLDY    68  52  56 SE9       30.19R
6HR MIN TEMP:  68; 6HR MAX TEMP:  78;

ORANGEBURG     CLOUDY    68  52  56 S8        30.19R
6HR MIN TEMP:  68; 6HR MAX TEMP:  77;

SUMTER SHAW    PTCLDY    69  52  55 S10       30.18R
6HR MIN TEMP:  69; 6HR MAX TEMP:  78;

NEWBERRY       MOCLDY    68  52  56 SE3       30.20R
AIKEN          FAIR      68  50  52 SE5       30.20R
BARNWELL       FAIR      70  54  56 SE9       30.19R
MANNING        FAIR      64  54  68 S3        30.22R
CAMDEN         MOCLDY    70  52  52 CALM      30.20R
LANCASTER      MOCLDY    68  50  52 SE3       30.19R
WINNSBORO      MOCLDY    68  50  52 SE3       30.18R


...EASTERN AND COASTAL SOUTH CAROLINA...

CITY           SKY/WX    TMP DP  RH WIND       PRES   REMARKS
N MYRTLE BCH   PTCLDY    64  56  75 SE5       30.24S
6HR MIN TEMP:  64; 6HR MAX TEMP:  72;

CONWAY         FAIR      64  54  68 CALM      30.24S
MARION         FAIR      64  52  63 S8        30.23R
HARTSVILLE     FAIR      68  48  49 S5        30.19R
FLORENCE       PTCLDY    68  54  60 S13       30.21R
6HR MIN TEMP:  68; 6HR MAX TEMP:  78;

DARLINGTON     PTCLDY    69  52  54 S9        30.20R
6HR MIN TEMP:  69; 6HR MAX TEMP:  76;

CHARLESTON APT PTCLDY    65  55  70 SE8       30.22R
6HR MIN TEMP:  65; 6HR MAX TEMP:  76;

MOUNT PLEASANT FAIR      64  57  77 E3        30.23R
WALTERBORO     CLEAR     64  52  63 SE5       30.21S
BEAUFORT       CLEAR     67  59  75 SE6       30.21R
6HR MIN TEMP:  67; 6HR MAX TEMP:  77;



...EASTERN GEORGIA...

CITY           SKY/WX    TMP DP  RH WIND       PRES   REMARKS
AUGUSTA BUSH F PTCLDY    73  52  47 SE8       30.15R
6HR MIN TEMP:  72; 6HR MAX TEMP:  81;

AUGUSTA DANIEL MOCLDY    73  48  41 SE6       30.16R
6HR MIN TEMP:  73; 6HR MAX TEMP:  78;

THOMSON        CLOUDY    71  51  47 S6        30.19R
6HR MIN TEMP:  71; 6HR MAX TEMP:  78;

WASHINGTON     FAIR      70  55  60 CALM      30.14R
CLAXTON        FAIR      70  61  74 E7        30.17R
6HR MIN TEMP:  70; 6HR MAX TEMP:  77;

SYLVANIA       CLEAR    N/A N/A N/A SE5       30.19R
STATESBORO     PTCLDY    70  56  61 SE7       30.17R
6HR MIN TEMP:  70; 6HR MAX TEMP:  80;

SAVANNAH       PTCLDY    68  52  56 SE9       30.19S
6HR MIN TEMP:  68; 6HR MAX TEMP:  78;



...SOUTHERN NORTH CAROLINA...

CITY           SKY/WX    TMP DP  RH WIND       PRES   REMARKS
CHARLOTTE      MOCLDY    69  47  45 S6        30.19R
6HR MIN TEMP:  69; 6HR MAX TEMP:  75;

MONROE         CLOUDY    69  47  45 CALM      30.19R
6HR MIN TEMP:  68; 6HR MAX TEMP:  75;

WADESBORO      PTCLDY    63  48  58 SE5       30.19R
ROCKINGHAM     CLEAR     68  50  52 CALM      30.19S
RUTHERFORDTON  CLOUDY    66  49  53 S8        30.19S
ASHEVILLE      CLOUDY    63  45  51 SE5       30.21R
6HR MIN TEMP:  63; 6HR MAX TEMP:  67;


$$



USA.gov is the U.S. government's official web portal to all federal, state and local government web resources and services.